This is the latest recevied weather packets stored in our database for station/object W3JGB. If no packets are shown the sender has not sent any weather packets the latest 10 day(s).
| Time | Temp. | Humidity | Pressure | Rain* | Wind** | Luminosity | Snow |
|---|---|---|---|---|---|---|---|
| 1778253466 | 13.89° C | 56% | 1011.8 hPa | 0 mm | - | 125 W/m² | - |
| 1778253163 | 13.89° C | 55% | 1011.8 hPa | 0 mm | - | 120 W/m² | - |
| 1778252859 | 13.89° C | 55% | 1011.7 hPa | 0 mm | - | 203 W/m² | - |
| 1778252556 | 13.89° C | 54% | 1011.6 hPa | 0 mm | - | 193 W/m² | - |
| 1778252253 | 13.89° C | 54% | 1011.7 hPa | 0 mm | - | 124 W/m² | - |
| 1778251949 | 13.89° C | 57% | 1011.6 hPa | 0 mm | - | 129 W/m² | - |
| 1778251646 | 13.89° C | 53% | 1011.7 hPa | 0 mm | - | 147 W/m² | - |
| 1778251344 | 13.89° C | 56% | 1011.9 hPa | 0 mm | - | 413 W/m² | - |
| 1778251041 | 13.89° C | 56% | 1011.8 hPa | 0 mm | - | 445 W/m² | - |
| 1778250738 | 13.89° C | 57% | 1011.9 hPa | 0 mm | - | 458 W/m² | - |
| 1778250434 | 13.33° C | 58% | 1012 hPa | 0 mm | - | 140 W/m² | - |
| 1778250131 | 12.78° C | 63% | 1011.9 hPa | 0 mm | - | 104 W/m² | - |
| 1778249827 | 12.78° C | 64% | 1012 hPa | 0 mm | - | 120 W/m² | - |
| 1778249525 | 12.22° C | 62% | 1012.1 hPa | 0 mm | - | 122 W/m² | - |
| 1778249222 | 11.67° C | 64% | 1012 hPa | 0 mm | - | 431 W/m² | - |
| 1778248919 | 11.67° C | 66% | 1012.4 hPa | 0 mm | - | 286 W/m² | - |
| 1778248615 | 11.11° C | 67% | 1012.3 hPa | 0 mm | - | 206 W/m² | - |
| 1778248310 | 11.11° C | 65% | 1012.5 hPa | 0 mm | - | 192 W/m² | - |
| 1778248007 | 11.11° C | 66% | 1012.3 hPa | 0 mm | - | 197 W/m² | - |
| 1778247705 | 11.11° C | 74% | 1012.5 hPa | 0 mm | - | 339 W/m² | - |
| 1778247401 | 10° C | 73% | 1012.4 hPa | 0 mm | - | 396 W/m² | - |
| 1778247098 | 10° C | 76% | 1012.7 hPa | 0 mm | - | 226 W/m² | - |
| 1778246796 | 8.33° C | 90% | 1012.6 hPa | 0 mm | - | 517 W/m² | - |
| 1778246493 | 7.78° C | 99% | 1012.4 hPa | 0 mm | - | 507 W/m² | - |
| 1778246188 | 7.22° C | 99% | 1012.7 hPa | 0 mm | - | 474 W/m² | - |
* Rain latest hour (hover to see other rain measurements)
** Current wind speed in m/s (hover to see current wind gust speed)